[[{"header":{"parameterUnit":"m.s-1","parameterCategory":1,"la1":30.2991,"la2":30.254,"lo1":-89.0895,"lo2":-89.0444,"dy":0.0017,"dx":0.0017,"nx":28,"ny":28,"refTime":"2025-11-18T09:00:00:Z","depth":0,"parameterNumber":2,"parameterNumberName":"U-component_of_WINDS"},"data":[0,0,0,0,0,0,0,0,0,0,0,0,0,0,0,0,0,0,0,0,0,0,0,0,0,0,0,0,0,0,0,0,0,0,0,0,0,0,0,0,0,0,0,0,0,0,0,0,0,0,0,0,0,0,0,0,0,0,-1.7811,-1.7811,0,-1.7785,-1.7784,-1.7784,-1.7766,-1.7766,-1.7766,-1.7766,-1.7735,-1.7734,-1.7734,0,0,0,0,0,0,0,0,0,0,0,0,0,-1.7843,-1.7842,-1.7811,-1.7811,-1.781,-1.7785,-1.7784,-1.7784,-1.7766,-1.7766,-1.7766,-1.7766,-1.7735,-1.7734,-1.7734,0,0,0,0,0,0,0,0,0,0,0,0,0,-1.7824,-1.7842,-1.7811,-1.7798,-1.7797,-1.7785,-1.7784,-1.7784,-1.7766,-1.7766,-1.7766,-1.7766,-1.7735,-1.7734,-1.7733,-1.7731,0,0,-1.773,-1.773,0,0,0,0,0,0,0,0,-1.7825,-1.7823,-1.7801,-1.7799,-1.7798,-1.7779,-1.7784,-1.7766,-1.7766,-1.7778,-1.7766,-1.7765,-1.7749,-1.7747,-1.7743,-1.7729,-1.7728,-1.773,-1.7729,-1.7729,-1.7729,0,0,0,0,0,0,0,-1.7826,-1.7824,-1.78,-1.78,-1.7798,-1.7793,-1.779,-1.7781,-1.7765,-1.7777,-1.7775,-1.7773,-1.7748,-1.7744,-1.7742,-1.7727,-1.773,-1.7729,-1.7729,-1.7728,-1.771,-1.7711,0,0,0,0,0,0,-1.783,-1.7825,-1.7801,-1.78,-1.7811,-1.7793,-1.7789,-1.7785,-1.7765,-1.7762,-1.7773,-1.7772,-1.7745,-1.7743,-1.7741,-1.7736,-1.7729,-1.7728,-1.7727,-1.771,-1.771,-1.7711,0,0,0,0,0,0,-1.7831,-1.7828,-1.7802,-1.7812,-1.7808,-1.7792,-1.7787,-1.7784,-1.7779,-1.7762,-1.7759,-1.7771,-1.7745,-1.7742,-1.7734,-1.7734,-1.7728,-1.7727,-1.771,-1.771,-1.7711,-1.7727,0,0,0,0,0,0,-1.7832,-1.7828,-1.7828,-1.7812,-1.7808,-1.7797,-1.7787,-1.7784,-1.7778,-1.7777,-1.7759,-1.7756,-1.7745,-1.7735,-1.7732,-1.7733,-1.7726,-1.771,-1.771,-1.771,-1.7726,-1.7727,-1.7729,0,0,0,0,0,-1.7833,-1.7833,-1.7828,-1.7825,-1.7807,-1.7797,-1.7794,-1.7782,-1.7778,-1.7777,-1.7766,-1.7757,-1.7735,-1.7734,-1.7731,-1.7731,-1.771,-1.771,-1.771,-1.7725,-1.7727,-1.7729,0,0,0,0,0,0,-1.7847,-1.783,-1.7825,-1.782,-1.781,-1.7794,-1.7792,-1.7785,-1.7775,-1.7774,-1.7758,-1.7754,-1.7747,-1.7738,-1.7738,-1.7728,-1.7721,-1.7721,-1.7734,-1.7735,-1.7737,-1.7738,-1.7725,0,0,0,0,0,-1.785,-1.7845,-1.7829,-1.7826,-1.7822,-1.7808,-1.7803,-1.7795,-1.7784,-1.7779,-1.7767,-1.7756,-1.7746,-1.774,-1.7731,-1.7725,-1.772,-1.7723,-1.7725,-1.7726,-1.7726,-1.7722,-1.7723,-1.7712,-1.7712,-1.7712,0,0,-1.7855,-1.7845,-1.7842,-1.7829,-1.782,-1.7814,-1.7804,-1.7798,-1.7793,-1.7778,-1.7769,-1.776,-1.7746,-1.7739,-1.7735,-1.7732,-1.7728,-1.7726,-1.7728,-1.7726,-1.7722,-1.7723,-1.7724,-1.7712,-1.7712,-1.7712,0,0,-1.7862,-1.7854,-1.785,-1.7843,-1.783,-1.7821,-1.7821,-1.7806,-1.78,-1.7791,-1.778,-1.7773,-1.7757,-1.7748,-1.7741,-1.7745,-1.7736,-1.7742,-1.7749,-1.7745,-1.7746,-1.7747,-1.7748,-1.7748,-1.7742,-1.7742,-1.7742,0,-1.7869,-1.786,-1.7849,-1.7844,-1.7838,-1.7826,-1.7821,-1.7814,-1.7799,-1.7795,-1.7791,-1.7771,-1.7761,-1.7752,-1.7753,-1.7748,-1.7746,-1.7744,-1.7747,-1.7748,-1.7748,-1.7749,-1.7749,-1.7743,-1.7743,-1.7743,-1.7743,0,-1.787,-1.7864,-1.7862,-1.785,-1.7844,-1.7839,-1.7826,-1.7821,-1.7814,-1.7805,-1.7796,-1.7784,-1.7772,-1.7769,-1.7761,-1.7758,-1.7756,-1.775,-1.7743,-1.775,-1.775,-1.7751,-1.7744,-1.7744,-1.7744,-1.7743,0,0,-1.7883,-1.7866,-1.7865,-1.7859,-1.7846,-1.784,-1.7835,-1.7824,-1.782,-1.781,-1.7804,-1.7792,-1.7787,-1.7779,-1.777,-1.7767,-1.777,-1.7761,-1.776,-1.7763,-1.7766,-1.777,-1.7771,-1.7765,-1.7765,-1.7765,-1.7767,0,-1.7887,-1.7878,-1.7868,-1.7861,-1.7855,-1.7844,-1.7839,-1.783,-1.7822,-1.7814,-1.7805,-1.7796,-1.779,-1.7785,-1.7782,-1.7771,-1.7771,-1.777,-1.7758,-1.7758,-1.7761,-1.7771,-1.7775,-1.7778,-1.7767,-1.7767,-1.7767,0,-1.789,-1.7882,-1.7875,-1.7863,-1.786,-1.7856,-1.7845,-1.7839,-1.7828,-1.7822,-1.7814,-1.7805,-1.7798,-1.7793,-1.7782,-1.7782,-1.7777,-1.7771,-1.777,-1.7768,-1.7762,-1.7768,-1.7779,-1.7779,-1.7767,-1.7767,-1.7767,0,-1.79,-1.7887,-1.7882,-1.7877,-1.7862,-1.786,-1.7853,-1.7842,-1.7837,-1.7827,-1.7823,-1.7813,-1.7807,-1.7799,-1.7787,-1.7784,-1.7777,-1.7771,-1.7771,-1.7772,-1.7769,-1.777,-1.7779,-1.7767,-1.7767,-1.7767,-1.7767,0,-1.7904,-1.7901,-1.7886,-1.7883,-1.7878,-1.7867,-1.7862,-1.7855,-1.7845,-1.7839,-1.7829,-1.7823,-1.7808,-1.7801,-1.7791,-1.7784,-1.7781,-1.7775,-1.7773,-1.7776,-1.7777,-1.7771,-1.7771,-1.7767,-1.7767,-1.7767,-1.7767,0,-1.7914,-1.7905,-1.7898,-1.7885,-1.7882,-1.7879,-1.7867,-1.7863,-1.7855,-1.7847,-1.7845,-1.7831,-1.7822,-1.781,-1.7796,-1.779,-1.7783,-1.7779,-1.7787,-1.7785,-1.7786,-1.7786,-1.7791,-1.7791,-1.7781,-1.7781,-1.7781,0,-1.7917,-1.7915,-1.7902,-1.7898,-1.7892,-1.7886,-1.788,-1.7869,-1.7864,-1.7851,-1.7848,-1.7839,-1.783,-1.7816,-1.7804,-1.7793,-1.7789,-1.7792,-1.7787,-1.7791,-1.7788,-1.7788,-1.7788,-1.7792,-1.7793,-1.7793,-1.7793,0,-1.7924,-1.792,-1.7913,-1.7905,-1.7899,-1.7892,-1.7884,-1.7881,-1.7868,-1.7862,-1.7854,-1.7847,-1.7834,-1.7824,-1.7813,-1.7805,-1.7796,-1.7795,-1.7794,-1.7797,-1.7801,-1.7798,-1.7789,-1.7794,-1.7794,-1.7794,-1.7794,-1.7794,-1.793,-1.7927,-1.7918,-1.7911,-1.7904,-1.7897,-1.7893,-1.7885,-1.7877,-1.7867,-1.786,-1.7852,-1.7841,-1.7824,-1.7817,-1.7809,-1.7806,-1.7805,-1.7805,-1.7805,-1.7805,-1.7803,-1.7807,-1.7807,-1.7807,-1.7807,-1.7807,0,-1.7936,-1.793,-1.7924,-1.7914,-1.7908,-1.7902,-1.7893,-1.7889,-1.7882,-1.7873,-1.7865,-1.7855,-1.7845,-1.7834,-1.7823,-1.7819,-1.7815,-1.7817,-1.7816,-1.7815,-1.7809,-1.7811,-1.782,-1.782,-1.782,-1.782,-1.782,-1.782,-1.7938,-1.7933,-1.7928,-1.7918,-1.7912,-1.7904,-1.79,-1.7893,-1.7886,-1.7875,-1.7868,-1.7861,-1.7851,-1.7839,-1.783,-1.7827,-1.7823,-1.7826,-1.7821,-1.7816,-1.7815,-1.7814,-1.7815,-1.7825,-1.7825,-1.7827,-1.7827,-1.7827]},{"header":{"parameterUnit":"m.s-1","parameterCategory":1,"la1":30.2991,"la2":30.254,"lo1":-89.0895,"lo2":-89.0444,"dy":0.0017,"dx":0.0017,"nx":28,"ny":28,"refTime":"2025-11-18T09:00:00:Z","depth":0,"parameterNumber":3,"parameterNumberName":"V-component_of_WINDS"},"data":[0,0,0,0,0,0,0,0,0,0,0,0,0,0,0,0,0,0,0,0,0,0,0,0,0,0,0,0,0,0,0,0,0,0,0,0,0,0,0,0,0,0,0,0,0,0,0,0,0,0,0,0,0,0,0,0,0,0,2.2011,2.2012,0,2.2045,2.2046,2.2046,2.2058,2.2057,2.2057,2.2057,2.2091,2.2092,2.2093,0,0,0,0,0,0,0,0,0,0,0,0,0,2.1957,2.1957,2.2011,2.2012,2.2012,2.2045,2.2046,2.2046,2.2058,2.2057,2.2057,2.2057,2.209,2.2091,2.2093,0,0,0,0,0,0,0,0,0,0,0,0,0,2.1984,2.1958,2.2011,2.2022,2.2023,2.2045,2.2046,2.2046,2.2058,2.2057,2.2057,2.2057,2.209,2.2091,2.2093,2.2106,0,0,2.2097,2.2098,0,0,0,0,0,0,0,0,2.1983,2.1986,2.202,2.2021,2.2023,2.2047,2.2039,2.2066,2.2058,2.2044,2.2057,2.2057,2.2076,2.2079,2.2086,2.2108,2.2109,2.2098,2.2099,2.2099,2.21,0,0,0,0,0,0,0,2.1981,2.1985,2.2025,2.202,2.2022,2.2025,2.2029,2.2044,2.2061,2.2046,2.2047,2.2051,2.2077,2.2084,2.2086,2.211,2.2098,2.2099,2.21,2.21,2.2148,2.2148,0,0,0,0,0,0,2.1977,2.1983,2.2024,2.2026,2.2002,2.2026,2.203,2.2039,2.2061,2.2064,2.2051,2.2051,2.2082,2.2085,2.2088,2.2107,2.2099,2.2101,2.2101,2.2148,2.2148,2.2148,0,0,0,0,0,0,2.1976,2.1981,2.2022,2.2005,2.201,2.2027,2.2037,2.204,2.2047,2.2065,2.2068,2.2055,2.2082,2.2086,2.2102,2.2108,2.2101,2.2103,2.2147,2.2148,2.2148,2.2144,0,0,0,0,0,0,2.1974,2.198,2.1985,2.2005,2.2011,2.2036,2.2038,2.2041,2.205,2.2051,2.2069,2.2072,2.2082,2.21,2.2104,2.211,2.2104,2.2147,2.2147,2.2148,2.2144,2.2144,2.2145,0,0,0,0,0,2.1972,2.1982,2.1985,2.199,2.2018,2.2036,2.204,2.2051,2.2051,2.2056,2.2068,2.2072,2.2107,2.2102,2.2106,2.2113,2.2146,2.2147,2.2148,2.2144,2.2144,2.2145,0,0,0,0,0,0,2.1961,2.1984,2.1989,2.2004,2.2019,2.2038,2.2045,2.2051,2.2065,2.2065,2.2078,2.2082,2.2098,2.2107,2.2101,2.2129,2.2127,2.2129,2.2122,2.2123,2.2124,2.2121,2.2105,0,0,0,0,0,2.196,2.1973,2.1993,2.2005,2.2012,2.2028,2.2036,2.2044,2.2059,2.2064,2.2077,2.2091,2.2106,2.2115,2.2129,2.2145,2.2151,2.2152,2.2153,2.2153,2.2155,2.2167,2.2168,2.2151,2.2151,2.2151,0,0,2.1959,2.1973,2.1981,2.2004,2.2015,2.2029,2.2032,2.2046,2.2057,2.2066,2.2084,2.2094,2.211,2.2128,2.2136,2.2136,2.2161,2.2154,2.2154,2.2156,2.2168,2.2169,2.2171,2.2152,2.2151,2.2151,0,0,2.1964,2.1976,2.1988,2.2001,2.2019,2.203,2.2033,2.2053,2.206,2.2078,2.2086,2.2099,2.2123,2.2135,2.2144,2.2158,2.2162,2.2162,2.2165,2.2176,2.2177,2.2179,2.2185,2.2187,2.2163,2.2163,2.2163,0,2.196,2.1981,2.1994,2.2008,2.2019,2.2029,2.2043,2.2054,2.2076,2.2083,2.2083,2.2115,2.2127,2.2149,2.2152,2.2159,2.2164,2.216,2.2176,2.2178,2.2179,2.2185,2.2187,2.2163,2.2163,2.2163,2.2163,0,2.1976,2.1991,2.1999,2.2022,2.2033,2.2047,2.2063,2.2073,2.208,2.2091,2.211,2.2125,2.2144,2.2149,2.2155,2.2173,2.2172,2.2174,2.2173,2.2181,2.2187,2.2189,2.2163,2.2163,2.2163,2.2163,0,0,2.1973,2.2005,2.2008,2.2019,2.2041,2.2053,2.2069,2.2088,2.2097,2.2112,2.2126,2.2148,2.2151,2.2161,2.2169,2.2179,2.2191,2.218,2.2181,2.2183,2.2213,2.2213,2.2215,2.2195,2.2195,2.2196,2.2212,0,2.1982,2.201,2.2023,2.2046,2.2061,2.2072,2.2086,2.2102,2.2113,2.2128,2.214,2.2156,2.2157,2.2164,2.2174,2.2188,2.2198,2.2186,2.2209,2.2209,2.2205,2.2218,2.2217,2.2232,2.2215,2.2215,2.2215,0,2.1996,2.2013,2.2037,2.2061,2.2067,2.2079,2.21,2.2113,2.2132,2.214,2.2153,2.2162,2.2179,2.2177,2.2202,2.2194,2.2204,2.2212,2.2213,2.2216,2.2213,2.2222,2.2237,2.2239,2.2219,2.2219,2.2218,0,2.1993,2.2022,2.2041,2.2051,2.2078,2.2086,2.2098,2.2117,2.2128,2.2146,2.2154,2.2173,2.2183,2.2198,2.2212,2.2209,2.2236,2.2235,2.2244,2.2244,2.2249,2.2249,2.2266,2.2254,2.2254,2.2254,2.2254,0,2.2002,2.2017,2.2041,2.2053,2.207,2.2086,2.2103,2.2115,2.2133,2.2148,2.2158,2.2172,2.2189,2.2205,2.2216,2.2236,2.2241,2.2248,2.2251,2.2248,2.2247,2.2255,2.2254,2.2255,2.2255,2.2254,2.2254,0,2.2002,2.2018,2.204,2.2065,2.2072,2.2084,2.2106,2.2118,2.2131,2.215,2.2155,2.2175,2.2195,2.2211,2.2236,2.2243,2.2265,2.2268,2.2259,2.2261,2.227,2.227,2.2294,2.2299,2.2282,2.2282,2.2282,0,2.2007,2.2019,2.2046,2.2057,2.2069,2.2087,2.21,2.2116,2.2129,2.2153,2.2163,2.2184,2.2202,2.2234,2.225,2.2271,2.2274,2.2282,2.2277,2.2274,2.2276,2.2276,2.2278,2.2282,2.2282,2.2282,2.2282,0,2.2014,2.2023,2.204,2.2062,2.2078,2.2095,2.2113,2.2122,2.2142,2.2156,2.2177,2.2191,2.2219,2.224,2.2263,2.2275,2.2283,2.2284,2.2287,2.2284,2.228,2.2284,2.2262,2.2283,2.2283,2.2283,2.2283,2.2283,2.2017,2.203,2.2052,2.2072,2.2088,2.2105,2.2119,2.2135,2.2153,2.2177,2.2186,2.2209,2.2229,2.2261,2.2274,2.2292,2.2292,2.2297,2.2298,2.2299,2.23,2.2276,2.2296,2.2296,2.2296,2.2296,2.2296,0,2.2027,2.2042,2.2061,2.2087,2.2104,2.211,2.2131,2.2145,2.2165,2.2184,2.2202,2.2228,2.225,2.2269,2.2292,2.2303,2.2307,2.2308,2.2308,2.2311,2.2297,2.2293,2.2305,2.2305,2.2305,2.2305,2.2305,2.2305,2.2033,2.2055,2.2067,2.2097,2.2113,2.2136,2.2148,2.2164,2.218,2.2209,2.2227,2.224,2.226,2.2285,2.2306,2.2311,2.2319,2.232,2.2326,2.2313,2.2312,2.2311,2.2307,2.2321,2.2321,2.2339,2.2339,2.2339]}]]